Wind_Speed
7 7 7 8 8 8 9 8 8 8 7 7 7 7 7 6 5 5 6 6 6 6 6 6 6 6 7 7 6 7 7 7 7 7 8 8 8 7 8 9 9 10 10
8 8 7 7 8 8 9 8 8 8 7 7 7 7 6 6 5 5 6 6 5 5 5 5 5 6 6 7 7 7 7 7 7 8 8 8 7 7 7 7 8 9 9
8 8 8 8 8 8 9 9 8 8 7 7 7 7 6 6 6 6 6 6 5 5 5 5 5 5 5 6 6 6 6 7 7 7 8 8 7 6 7 7 7 8 8
8 8 8 9 9 9 9 8 8 8 8 7 7 7 6 6 6 6 6 5 5 5 5 6 5 5 5 5 5 6 6 6 6 6 7 6 7 7 7 7 7 7 7
9 9 9 9 9 9 9 9 8 8 7 7 7 7 7 7 6 6 5 5 5 5 5 5 5 5 6 6 6 6 7 7 7 7 7 6 6 6 7 7 7 7 7
10 10 10 10 10 10 9 9 9 8 8 8 7 7 8 7 7 6 6 5 5 5 5 5 6 6 6 7 7 7 8 7 7 7 7 7 7 6 7 7 7 7 7
11 11 11 10 11 10 10 10 10 9 9 8 8 8 8 7 7 7 7 6 6 6 6 6 6 7 7 7 8 8 8 8 9 8 8 8 8 8 7 7 7 7 7
11 11 11 11 12 12 11 10 10 11 10 10 9 9 9 9 8 8 8 8 7 7 7 7 7 7 8 8 8 9 9 9 10 9 9 9 9 9 8 8 8 8 8
13 13 13 13 13 13 12 12 12 11 11 11 11 11 10 10 9 9 9 9 9 9 8 8 8 9 9 9 9 9 10 10 10 10 10 10 10 9 9 9 8 8 8
15 15 15 14 14 14 15 14 13 13 12 13 12 12 12 11 11 11 11 11 10 10 10 10 10 10 10 10 10 10 11 11 10 10 10 10 9 9 9 9 9 9 9
16 16 17 16 15 16 16 15 15 14 14 14 14 14 14 13 13 12 12 12 12 12 12 12 12 12 11 11 11 11 11 10 10 9 10 10 9 9 9 9 9 9 10
18 18 18 18 17 17 16 16 16 16 16 16 16 16 15 15 14 14 13 13 14 14 13 13 13 13 13 12 12 12 11 11 10 10 10 9 9 9 9 9 9 10 11
20 19 19 19 19 18 17 17 17 17 17 17 18 18 17 17 16 16 15 15 15 15 15 15 14 14 14 14 14 13 12 12 11 11 11 10 10 10 10 10 11 11 12
22 21 21 21 20 19 19 19 19 19 19 19 19 19 19 19 18 18 18 17 17 16 16 16 16 16 15 15 15 14 13 13 12 12 12 12 12 12 12 12 12 12 12
24 23 22 22 22 21 21 21 21 21 21 20 20 20 20 20 19 19 19 19 18 18 17 17 17 17 16 16 16 15 15 14 14 14 13 13 13 13 13 14 14 14 14
25 24 24 23 23 23 23 23 22 22 22 21 20 20 21 20 19 20 20 20 20 19 18 18 17 17 17 17 16 16 16 16 15 15 15 14 14 14 14 15 15 15 15
25 25 24 24 24 25 24 24 24 23 23 22 22 22 22 22 22 21 21 21 20 20 19 19 18 18 18 18 18 17 17 17 16 16 16 16 16 16 16 17 17 17 18
25 25 25 24 23 24 24 24 24 23 23 23 22 22 22 22 23 23 22 21 21 21 20 20 19 20 20 19 19 19 19 18 18 18 18 18 18 18 18 19 19 19 19
25 25 25 24 23 24 23 23 23 23 23 23 22 22 22 22 23 22 22 22 21 21 21 21 21 21 21 21 21 21 21 20 20 20 20 20 20 20 20 20 21 21 21
25 25 24 24 24 24 24 23 23 22 22 22 22 22 22 22 22 21 22 22 22 22 22 22 22 22 22 22 22 22 22 22 22 22 22 22 22 22 22 22 22 22 22
23 23 23 24 24 24 24 23 22 22 22 22 22 22 22 22 22 22 23 23 23 23 24 24 23 23 23 23 24 24 24 24 24 24 24 24 23 23 23 23 23 24 24
23 23 23 24 24 24 23 23 22 23 23 23 23 23 23 23 24 24 25 24 25 25 25 25 24 24 24 24 25 25 26 25 25 24 25 25 25 25 25 25 26 26 27
24 24 24 24 24 24 23 23 22 22 23 23 23 24 24 25 26 26 26 26 26 26 26 26 26 26 26 26 26 27 27 26 26 26 26 26 26 27 27 28 27 27 28
23 24 24 24 24 24 24 24 23 22 23 23 24 24 25 26 27 28 28 28 27 28 28 27 28 28 28 28 28 28 28 27 27 27 27 28 28 28 29 29 29 29 29
24 24 24 24 24 24 24 25 24 25 25 25 26 26 26 27 27 28 28 28 28 28 29 29 29 28 29 29 29 30 30 30 30 30 30 29 29 30 30 30 30 30 30
25 26 25 24 24 24 25 26 26 26 26 26 26 27 27 27 27 28 29 29 29 30 30 31 30 30 30 31 31 31 31 31 31 32 32 32 31 30 30 30 31 31 31
Wind_Direction
302 307 314 318 319 320 320 319 315 314 313 313 313 315 310 309 309 304 297 291 284 279 273 275 277 278 279 278 279 278 279 280 281 277 273 271 267 268 269 268 269 269 265
298 303 310 315 316 316 316 315 313 312 311 313 313 309 307 308 307 310 306 297 288 284 281 279 280 279 279 278 278 280 280 281 280 278 279 275 270 271 270 272 275 275 274
293 296 300 306 310 313 314 312 312 307 304 306 310 307 306 307 310 308 306 299 292 289 285 283 286 288 285 283 281 284 285 283 281 279 278 271 264 268 266 267 268 271 270
290 292 293 298 301 304 309 308 306 305 303 301 304 306 305 304 310 311 304 300 293 287 286 286 285 287 289 293 293 293 290 289 284 283 281 273 268 266 268 267 268 270 271
287 287 289 292 295 298 303 303 301 299 298 298 298 299 297 297 303 305 304 300 293 288 286 286 283 286 289 292 293 295 295 292 288 287 286 280 275 271 270 271 270 271 270
285 283 284 286 290 294 297 297 295 295 294 294 293 292 292 290 292 294 295 301 301 288 283 280 283 285 289 289 289 290 290 288 284 286 283 281 278 274 273 270 270 273 274
284 280 278 281 287 291 293 291 288 287 289 288 286 286 287 284 281 282 284 290 297 289 281 277 280 280 282 285 285 288 288 285 283 282 279 279 275 272 273 269 268 269 272
283 281 279 279 282 284 285 288 285 282 283 284 284 280 279 279 280 277 278 283 287 287 281 276 280 280 280 282 284 284 286 285 283 282 278 276 273 269 270 266 268 273 275
282 282 279 277 279 281 283 283 282 280 279 279 282 280 277 277 279 279 278 279 282 282 279 276 276 276 279 282 284 284 285 286 282 278 277 276 273 267 267 264 267 269 270
277 278 278 277 275 275 277 277 275 276 275 275 275 276 274 274 275 278 278 279 280 281 279 277 276 275 277 280 280 282 283 284 283 279 278 276 270 267 265 261 264 267 268
272 275 276 276 275 273 272 276 275 273 271 271 272 274 272 269 270 272 274 277 278 277 275 276 275 275 276 277 278 280 280 281 280 278 277 274 268 267 262 260 264 267 270
270 272 273 274 274 272 275 277 276 273 271 271 272 272 272 270 268 270 271 274 275 273 272 273 274 272 274 274 274 277 277 277 276 276 276 271 269 266 264 265 268 270 272
272 272 274 272 271 271 272 273 274 274 273 273 271 270 268 267 268 270 271 271 271 272 270 270 271 271 272 272 271 272 274 273 273 274 273 268 267 266 268 271 271 271 275
273 271 271 271 270 269 268 270 271 271 272 272 271 269 268 266 266 267 269 269 269 269 269 269 268 269 269 269 269 269 268 268 267 270 271 270 268 266 269 273 274 275 275
271 269 268 268 270 269 268 268 269 270 271 270 269 267 267 267 265 265 267 268 269 268 267 267 266 267 267 266 266 267 267 266 266 268 270 270 267 267 269 270 271 274 275
269 270 268 266 268 268 268 269 269 270 271 271 269 266 266 267 265 265 266 267 266 267 268 265 264 264 264 264 265 264 264 264 264 266 267 268 266 266 269 271 271 273 276
270 269 270 266 267 266 267 267 268 269 270 270 268 266 268 267 266 266 266 266 265 265 264 263 263 262 263 264 264 265 265 264 265 265 266 268 268 268 270 272 271 273 276
272 272 271 269 269 269 267 267 267 267 266 268 267 267 268 267 266 266 266 266 264 264 263 263 263 262 264 265 265 265 265 265 265 264 265 266 268 271 272 272 273 275 276
272 273 273 271 270 269 269 269 267 267 266 266 267 268 268 267 267 266 265 262 261 262 263 264 263 262 262 262 262 264 264 264 265 266 267 268 270 271 272 272 273 274 275
273 272 271 271 272 271 270 268 266 265 264 265 265 266 268 269 269 268 265 263 262 262 263 263 263 263 261 261 261 262 263 264 265 266 267 269 270 271 271 271 273 275 276
273 270 269 270 271 270 268 267 265 263 263 264 264 266 267 268 269 267 265 264 264 263 264 263 263 263 262 263 263 263 264 265 266 267 267 267 268 269 270 270 272 273 275
271 271 270 270 270 269 267 265 263 262 262 264 264 265 267 268 269 268 266 265 265 264 264 263 262 261 261 263 264 266 266 266 266 266 268 268 268 269 269 270 272 272 273
271 271 270 270 269 268 266 265 265 264 264 265 266 267 268 269 269 268 267 266 265 265 265 264 263 261 261 262 264 265 266 267 267 266 267 268 269 271 271 272 273 274 274
271 270 270 270 269 267 265 266 267 266 265 265 266 268 268 268 269 268 267 266 266 265 265 265 263 262 262 262 263 264 264 266 266 267 268 268 269 271 272 272 273 274 275
269 270 270 270 268 266 265 266 268 267 265 265 265 267 268 269 269 268 267 266 265 265 265 266 265 263 262 262 262 263 264 265 265 266 268 270 271 272 272 273 272 274 275
268 268 269 270 269 269 269 268 268 268 266 265 265 267 269 270 270 270 268 266 265 265 266 266 265 263 262 261 262 263 263 263 265 266 268 270 271 273 274 275 274 274 275
Height
5854 5853 5852 5851 5850 5849 5848 5847 5846 5844 5843 5842 5841 5840 5839 5838 5837 5836 5835 5834 5834 5833 5833 5833 5832 5832 5832 5832 5831 5831 5831 5830 5830 5830 5830 5830 5830 5830 5830 5830 5830 5830 5830
5851 5850 5850 5849 5848 5847 5846 5845 5844 5843 5842 5841 5839 5838 5837 5836 5835 5835 5834 5833 5832 5832 5831 5831 5831 5830 5830 5830 5829 5829 5829 5829 5829 5829 5828 5828 5829 5828 5828 5828 5828 5827 5827
5849 5848 5848 5847 5846 5845 5844 5843 5842 5841 5840 5839 5838 5837 5836 5835 5834 5833 5832 5831 5831 5830 5830 5829 5829 5829 5828 5828 5827 5827 5827 5827 5827 5826 5826 5826 5826 5826 5826 5826 5825 5825 5825
5847 5846 5845 5844 5844 5843 5842 5841 5840 5839 5838 5837 5836 5835 5834 5833 5833 5832 5831 5830 5829 5829 5828 5828 5827 5827 5827 5826 5826 5825 5825 5825 5824 5824 5824 5824 5824 5824 5824 5824 5824 5823 5823
5844 5843 5842 5842 5841 5841 5840 5839 5838 5837 5836 5835 5835 5834 5833 5832 5831 5830 5829 5829 5828 5827 5827 5826 5826 5826 5825 5825 5824 5824 5823 5823 5822 5822 5822 5821 5821 5821 5821 5821 5821 5821 5821
5840 5840 5840 5839 5839 5838 5837 5836 5835 5835 5834 5833 5832 5832 5831 5830 5829 5829 5828 5827 5826 5826 5825 5825 5824 5824 5824 5823 5823 5822 5822 5821 5821 5820 5820 5820 5819 5819 5819 5819 5819 5819 5819
5837 5837 5836 5836 5835 5835 5834 5834 5833 5832 5831 5831 5830 5829 5829 5828 5827 5827 5826 5826 5825 5824 5824 5823 5823 5822 5822 5821 5821 5820 5820 5819 5819 5818 5818 5817 5817 5817 5817 5817 5817 5817 5817
5833 5833 5833 5832 5832 5831 5831 5830 5830 5829 5828 5828 5827 5826 5826 5826 5825 5825 5824 5823 5823 5822 5821 5821 5821 5820 5820 5819 5818 5818 5817 5817 5816 5816 5815 5815 5815 5814 5814 5814 5814 5814 5814
5829 5829 5829 5828 5828 5827 5827 5827 5827 5826 5825 5824 5824 5823 5823 5823 5822 5822 5821 5821 5820 5820 5819 5819 5818 5818 5817 5816 5816 5815 5815 5814 5813 5813 5812 5812 5812 5811 5811 5811 5812 5812 5812
5825 5825 5824 5824 5823 5823 5823 5822 5822 5822 5821 5821 5820 5820 5819 5819 5819 5818 5818 5818 5817 5817 5816 5816 5815 5815 5814 5814 5813 5813 5812 5811 5811 5810 5810 5809 5809 5809 5809 5809 5809 5809 5810
5820 5820 5819 5819 5819 5818 5818 5818 5818 5817 5817 5817 5816 5816 5815 5815 5815 5815 5814 5814 5814 5813 5813 5812 5812 5812 5811 5811 5810 5809 5809 5808 5808 5807 5807 5807 5806 5806 5806 5806 5806 5806 5806
5814 5814 5814 5814 5813 5813 5813 5813 5813 5813 5812 5812 5812 5811 5811 5811 5811 5811 5810 5810 5810 5809 5809 5809 5808 5808 5807 5807 5807 5806 5806 5805 5805 5804 5804 5804 5804 5804 5803 5803 5803 5803 5803
5808 5808 5808 5808 5808 5808 5808 5808 5808 5808 5807 5807 5807 5806 5806 5806 5806 5806 5806 5806 5805 5805 5805 5804 5804 5804 5803 5803 5803 5803 5802 5802 5801 5801 5801 5801 5801 5801 5800 5800 5800 5800 5800
5802 5802 5802 5801 5801 5801 5802 5802 5802 5802 5802 5801 5801 5801 5801 5801 5801 5801 5801 5800 5800 5800 5800 5800 5800 5799 5799 5799 5799 5799 5799 5798 5798 5798 5798 5797 5797 5797 5797 5797 5797 5796 5796
5795 5795 5795 5795 5795 5795 5795 5795 5795 5795 5795 5795 5795 5795 5795 5795 5795 5795 5795 5795 5795 5795 5795 5795 5795 5795 5795 5795 5794 5794 5794 5794 5794 5794 5794 5794 5794 5794 5793 5793 5793 5793 5792
5788 5788 5787 5787 5788 5788 5788 5788 5788 5788 5788 5788 5789 5789 5789 5788 5788 5789 5789 5789 5789 5789 5789 5789 5790 5790 5790 5790 5790 5790 5790 5790 5790 5790 5790 5790 5790 5789 5789 5789 5789 5789 5788
5780 5780 5779 5779 5780 5780 5780 5780 5781 5781 5782 5782 5782 5782 5782 5782 5782 5782 5782 5782 5782 5783 5783 5784 5784 5784 5784 5785 5785 5785 5785 5785 5785 5785 5785 5785 5785 5785 5785 5784 5784 5784 5783
5772 5771 5771 5771 5771 5772 5772 5773 5773 5774 5775 5775 5775 5775 5775 5775 5775 5775 5775 5776 5776 5776 5777 5778 5778 5778 5779 5779 5779 5779 5780 5780 5780 5780 5780 5780 5780 5780 5779 5779 5778 5778 5777
5763 5763 5763 5763 5764 5764 5764 5765 5766 5766 5767 5768 5768 5768 5768 5768 5768 5768 5768 5768 5769 5770 5770 5771 5771 5772 5772 5773 5773 5773 5774 5774 5774 5774 5774 5774 5774 5774 5773 5773 5772 5772 5771
5755 5756 5756 5756 5757 5757 5757 5758 5758 5759 5759 5760 5761 5761 5761 5761 5761 5761 5761 5761 5762 5763 5763 5764 5764 5765 5765 5766 5766 5767 5767 5767 5768 5768 5768 5768 5767 5767 5766 5766 5766 5765 5765
5748 5748 5749 5749 5750 5750 5750 5751 5752 5752 5752 5752 5753 5753 5754 5754 5754 5754 5754 5754 5755 5755 5756 5756 5757 5757 5758 5759 5759 5759 5760 5760 5760 5760 5761 5760 5760 5760 5760 5759 5759 5758 5757
5741 5741 5742 5742 5742 5742 5743 5743 5744 5745 5745 5745 5745 5746 5746 5746 5746 5746 5746 5746 5747 5747 5748 5748 5749 5749 5750 5751 5751 5751 5752 5752 5753 5753 5753 5753 5752 5752 5752 5751 5751 5750 5750
5734 5734 5734 5735 5735 5735 5735 5736 5736 5737 5737 5738 5738 5738 5738 5738 5738 5738 5738 5738 5738 5739 5739 5739 5740 5741 5742 5742 5743 5743 5744 5744 5744 5745 5745 5745 5744 5744 5743 5743 5742 5742 5741
5727 5727 5727 5727 5728 5728 5728 5728 5728 5729 5729 5730 5730 5730 5730 5730 5730 5729 5729 5729 5730 5730 5731 5731 5731 5732 5733 5733 5734 5734 5735 5735 5736 5736 5736 5736 5736 5735 5735 5734 5733 5732 5732
5720 5720 5720 5720 5720 5720 5720 5720 5720 5721 5721 5722 5722 5722 5721 5721 5721 5721 5720 5720 5721 5721 5721 5721 5721 5722 5723 5724 5724 5725 5726 5726 5726 5726 5726 5726 5726 5726 5725 5725 5724 5723 5722
5712 5712 5712 5713 5713 5712 5712 5712 5712 5712 5713 5713 5713 5713 5712 5712 5712 5711 5711 5711 5711 5711 5711 5711 5711 5712 5713 5713 5714 5714 5715 5715 5716 5716 5717 5716 5716 5716 5715 5714 5714 5713 5712